Theta_e
301 293 290 294 294 294 292 289 287 291 295 290 290 291 294 298 297 293 294 292 292 293 295 295 296 298 300 300 300 301 300 301 303 302 301 302 302 306 308 309 311 317 326 325
294 289 296 297 296 293 291 287 287 290 293 290 289 289 293 296 296 295 294 292 293 294 294 294 295 295 297 297 299 301 300 301 302 302 302 303 303 306 309 312 315 318 325 325
290 293 297 295 292 291 289 287 284 286 291 292 289 287 290 294 296 296 295 296 295 293 292 293 294 293 294 296 299 300 300 301 301 301 302 303 305 306 307 309 314 320 325 325
292 295 293 291 291 291 286 291 290 289 286 280 289 276 287 290 292 294 295 294 293 291 293 293 293 292 293 296 298 300 300 300 301 301 302 303 305 306 309 311 316 321 322 324
289 290 289 290 291 292 289 291 289 288 285 285 281 278 285 287 287 291 293 295 292 290 291 292 292 294 295 296 298 300 299 300 300 300 303 310 309 310 315 314 315 321 322 323
292 294 293 291 292 292 293 290 289 287 286 276 281 280 281 283 286 289 294 294 292 290 290 292 293 294 294 295 297 298 298 298 299 299 300 305 307 309 310 312 312 313 314 319
289 290 292 293 289 291 290 285 278 277 274 277 284 279 282 291 292 293 293 292 290 290 289 290 290 290 292 294 295 297 297 297 298 298 298 301 304 306 306 308 309 309 309 310
284 281 289 292 289 287 287 285 279 274 276 277 281 277 283 292 293 293 294 292 291 289 290 289 289 290 291 294 294 296 296 296 297 297 297 298 301 303 304 305 306 307 307 307
286 284 290 291 292 289 286 280 286 280 276 276 280 284 288 289 289 291 291 291 288 289 288 288 289 289 290 292 293 294 296 295 296 296 296 296 297 299 300 302 303 304 304 305
290 282 288 289 290 290 287 289 279 279 271 274 280 279 280 285 287 290 290 290 289 288 288 288 288 289 290 292 293 294 296 294 295 296 296 296 295 296 297 298 298 298 299 300
290 286 283 287 285 285 283 282 284 283 281 277 276 279 285 288 290 290 290 292 289 287 287 287 288 289 290 292 292 293 294 295 294 295 295 295 295 295 296 295 295 296 296 296
291 287 280 283 287 288 287 285 285 279 278 279 279 279 288 290 291 292 291 293 290 288 288 287 288 288 289 290 292 292 292 293 294 295 294 294 294 294 294 293 294 294 293 294
290 282 276 280 281 285 284 286 287 285 281 279 277 280 289 289 288 290 291 291 289 288 287 287 287 287 288 289 291 291 292 292 293 293 293 293 293 292 292 292 293 293 292 292
293 284 282 280 279 283 280 283 285 284 278 280 281 281 283 287 288 289 290 291 288 287 288 287 287 287 288 289 289 290 291 292 292 292 291 291 290 291 291 292 292 292 292 292
290 278 281 282 283 282 282 283 283 283 284 279 283 283 287 289 288 290 291 292 289 288 288 287 287 287 287 287 288 290 291 291 291 291 290 290 290 290 291 291 291 291 291 291
289 277 279 275 282 282 280 282 284 285 285 285 286 284 291 291 289 290 291 292 290 288 288 288 288 288 288 288 288 290 290 290 291 290 289 290 290 289 289 289 289 289 289 289
284 282 280 276 278 275 272 279 282 284 286 286 282 288 289 288 290 292 291 293 292 289 289 288 288 289 288 288 289 288 289 290 289 289 289 289 288 288 287 287 287 286 286 288
283 282 282 278 278 272 284 283 286 285 287 289 289 291 291 292 292 293 293 293 293 291 290 289 289 289 288 288 288 289 289 289 288 288 288 288 287 286 285 285 285 285 285 286
287 284 280 276 275 282 286 284 282 281 283 288 289 291 292 290 288 289 293 294 295 293 292 291 290 289 289 288 288 288 287 287 287 286 286 286 285 284 283 283 283 283 284 283
286 286 283 275 272 272 284 281 284 287 280 290 291 291 291 289 285 289 293 294 294 294 292 291 290 290 289 288 288 287 286 286 286 285 285 285 285 284 283 282 283 283 283 283
280 281 279 279 277 278 287 282 283 280 285 286 288 291 289 288 290 289 290 294 294 294 292 292 290 289 289 289 288 285 286 286 285 285 284 284 284 284 283 282 282 282 282 282
280 279 279 280 278 276 283 281 283 288 285 284 287 288 288 289 289 287 288 291 292 291 291 291 289 288 288 288 287 285 285 285 285 284 284 282 281 283 283 281 281 281 282 281
279 283 281 282 282 286 283 285 286 286 285 285 284 286 287 289 288 288 288 289 291 291 290 289 288 285 287 287 287 285 286 285 284 281 280 278 278 281 281 281 280 281 281 280
282 286 281 282 286 288 287 287 286 288 286 286 286 285 286 287 288 286 286 286 287 287 288 288 285 286 285 286 286 287 285 284 282 280 277 277 278 278 278 281 281 281 280 279
282 284 281 282 285 285 287 288 291 289 287 286 285 285 286 287 286 286 286 285 286 286 286 287 286 286 286 285 285 284 284 283 282 279 277 278 278 278 278 279 280 281 280 282
285 282 283 282 287 289 291 292 292 288 288 288 287 284 284 285 285 286 285 286 285 285 284 285 284 285 285 285 284 283 284 284 282 279 278 278 279 277 278 279 275 284 285 286
Wind_Speed
1 3 5 6 1 4 5 4 5 4 6 3 8 12 9 7 9 7 8 4 3 4 5 6 7 7 7 7 10 14 15 16 12 9 8 7 7 7 7 9 12 13 9 12
2 5 5 8 4 2 3 3 4 5 4 2 8 16 14 8 7 8 7 2 3 5 5 6 7 8 8 8 12 15 17 16 13 9 8 7 6 6 7 7 9 13 12 13
6 4 4 3 3 3 4 1 3 4 6 7 8 9 2 2 1 6 5 4 3 2 5 6 7 7 8 9 13 15 17 17 14 14 10 7 7 6 7 7 6 10 13 13
5 6 5 3 3 2 3 4 4 4 6 3 3 8 5 3 6 7 6 6 5 2 4 5 6 7 7 9 12 15 16 16 15 17 12 8 6 6 4 6 4 8 11 11
1 5 4 4 0 3 2 1 2 3 4 6 1 1 8 1 5 8 8 8 6 3 3 5 6 6 6 8 12 13 15 15 17 16 15 3 3 5 5 4 6 7 7 10
3 3 3 2 6 5 4 2 5 3 3 1 4 4 7 5 6 4 6 7 6 4 2 4 5 6 6 7 10 12 15 16 16 16 16 13 13 10 6 7 8 6 6 4
4 5 3 2 4 2 3 3 3 4 2 5 4 2 11 4 7 6 8 8 7 5 3 3 5 6 7 8 9 11 15 16 15 15 15 14 14 12 14 6 11 11 9 8
6 3 9 7 2 2 6 2 3 4 2 3 2 7 8 4 8 5 7 8 8 5 3 4 5 5 6 7 8 11 13 15 14 14 15 14 15 10 9 13 12 11 11 11
4 4 4 2 3 3 5 5 1 1 2 2 6 8 2 5 4 6 7 7 7 6 5 5 5 5 5 6 7 8 12 13 14 13 13 15 14 16 14 16 14 12 14 12
5 2 2 3 1 1 2 1 3 3 1 5 5 5 7 7 9 8 9 9 8 8 6 5 4 4 4 6 6 8 10 10 11 13 12 13 16 16 15 14 17 18 14 15
5 1 2 3 8 8 4 3 3 0 3 3 4 7 2 4 12 13 10 9 9 9 7 6 5 3 4 6 6 7 8 11 11 11 12 16 15 16 15 15 15 14 13 14
2 1 5 7 4 4 3 6 7 5 5 3 1 10 2 5 7 9 9 8 9 10 9 8 6 4 4 6 6 7 6 7 7 10 11 11 12 13 14 14 13 12 13 13
2 1 1 5 2 2 5 5 3 3 2 7 6 8 2 3 1 0 9 9 8 9 10 8 7 5 4 5 6 6 6 6 6 6 7 10 11 11 10 10 10 11 11 11
1 1 5 4 2 4 4 6 8 6 4 4 11 8 4 7 8 7 6 9 10 9 9 8 7 7 5 5 6 6 6 6 6 6 6 8 7 8 9 10 11 12 10 11
1 5 3 5 5 5 5 6 10 16 18 9 2 15 11 10 11 13 11 9 11 12 11 9 9 8 7 6 6 6 6 7 5 6 7 7 6 7 7 9 9 9 10 9
2 3 1 5 4 7 7 9 14 19 21 20 22 30 12 11 4 9 12 12 13 14 13 11 11 10 9 8 7 6 7 6 7 5 5 5 6 6 6 6 7 8 8 8
8 5 2 5 3 5 8 21 24 16 13 23 19 32 3 6 8 14 12 16 17 15 15 15 15 13 10 9 8 8 8 7 8 6 4 5 5 6 6 6 6 7 7 7
7 6 1 3 5 7 3 2 15 20 21 23 19 23 8 10 8 9 10 17 17 16 16 15 12 12 10 9 8 8 7 8 8 8 6 4 5 6 6 7 7 6 5 6
4 5 3 3 5 13 18 7 8 10 13 22 27 29 23 5 2 8 8 12 19 19 16 16 15 14 13 12 9 10 8 8 8 7 8 7 6 6 6 6 6 6 6 5
3 2 6 3 4 9 4 1 2 5 11 12 23 27 18 9 9 11 15 11 13 14 14 15 14 13 14 12 11 12 9 8 10 9 8 7 8 6 6 6 6 3 5 5
7 4 14 10 7 11 9 6 3 6 7 5 6 11 7 11 8 1 4 12 11 14 15 15 16 17 17 14 14 12 10 12 9 8 8 8 7 8 6 5 3 4 5 5
13 13 7 7 7 18 6 6 9 2 2 3 5 7 2 4 5 3 3 7 9 12 14 17 16 13 13 15 15 12 13 9 8 8 8 8 7 4 6 8 5 5 6 6
8 11 10 16 13 0 9 3 7 2 1 3 2 4 4 4 4 5 4 5 7 11 13 13 14 11 12 14 15 15 12 11 10 8 8 7 6 6 6 7 7 6 5 5
6 6 4 4 8 16 8 9 10 8 7 5 4 3 2 4 4 5 4 5 6 7 11 12 12 14 14 14 13 13 12 12 12 10 8 7 8 7 6 4 5 5 6 5
8 12 7 11 10 10 13 14 15 11 10 8 7 7 8 7 7 8 7 7 7 7 7 10 14 14 15 14 13 10 13 14 12 9 7 8 6 8 6 4 6 6 2 6
8 9 11 13 9 13 16 13 13 11 15 17 12 8 9 10 10 8 8 8 7 8 8 9 9 11 12 13 13 12 14 15 14 12 9 8 8 6 6 6 2 2 5 7
Wind_Direction
141 251 210 229 117 30 314 327 298 327 106 292 246 261 257 212 187 222 248 211 283 338 332 2 350 344 345 338 324 327 319 320 314 305 292 277 266 263 252 246 241 255 183 177
168 234 81 80 63 321 349 21 310 284 81 237 284 282 267 235 209 200 237 262 296 330 339 349 350 347 345 338 329 328 328 320 316 304 293 272 266 271 254 258 233 238 185 181
262 83 103 127 157 237 167 167 260 275 318 244 311 282 349 56 159 188 226 238 247 310 352 346 356 344 340 340 333 333 329 326 325 315 297 276 254 245 253 255 260 217 187 170
252 104 164 183 236 193 283 51 186 300 357 297 54 285 292 244 199 223 232 223 210 47 17 352 353 349 346 341 328 338 336 335 334 323 304 252 257 268 246 239 223 197 179 168
174 158 190 217 288 158 101 67 279 328 288 323 80 66 271 167 251 225 215 205 149 99 34 351 357 0 355 343 341 342 343 346 345 345 347 358 251 254 286 243 184 155 167 165
72 348 243 37 74 36 96 233 206 263 239 309 205 145 279 200 212 205 202 158 144 143 70 38 19 10 358 346 344 349 354 355 357 354 2 19 28 23 21 68 82 76 74 123
148 191 105 168 135 163 239 266 325 342 4 234 190 203 248 222 170 178 168 159 151 140 91 46 23 16 7 359 348 358 360 2 1 2 14 12 39 32 39 25 77 76 69 66
174 247 170 172 265 189 197 323 180 235 283 301 62 240 258 58 144 118 119 139 135 171 135 84 48 35 20 11 360 358 5 5 4 12 18 22 44 41 51 52 66 71 75 68
201 123 52 3 39 8 152 215 8 64 52 14 221 256 148 108 149 156 172 157 177 176 136 101 74 52 34 26 22 6 8 10 11 18 26 35 37 49 45 50 59 65 72 75
350 102 186 107 268 243 335 23 96 332 196 264 282 270 240 209 208 192 201 192 181 153 143 123 88 61 46 47 32 29 17 24 12 25 32 42 47 45 46 51 53 55 58 62
345 112 125 122 205 180 163 227 206 27 199 209 301 263 286 248 183 189 193 188 169 154 155 133 113 98 74 64 51 47 28 26 19 18 34 45 43 50 49 51 51 51 60 62
199 353 180 206 80 18 285 214 176 152 224 236 95 272 335 53 142 161 177 176 156 148 145 142 132 126 97 83 66 67 43 28 34 20 31 46 58 54 57 58 63 59 60 57
113 295 46 321 18 25 243 204 255 110 76 209 154 259 356 72 53 14 163 161 147 148 145 145 146 144 134 112 100 83 80 38 39 52 32 32 38 49 54 67 68 68 68 67
140 208 207 198 126 114 218 217 202 186 193 194 228 283 196 221 210 203 215 166 156 162 158 162 159 153 156 142 126 108 84 75 63 63 59 61 42 56 54 50 48 50 56 65
306 222 222 248 246 192 220 201 200 214 224 205 222 234 245 228 208 202 185 170 161 173 171 171 166 160 166 159 134 123 104 93 76 75 69 64 48 54 58 62 65 66 64 60
226 257 26 286 230 223 238 220 231 220 234 250 258 271 253 249 255 181 184 179 182 183 177 175 164 162 169 172 162 152 131 126 111 93 103 103 99 83 56 63 76 74 69 62
162 165 158 259 10 335 283 212 219 218 211 218 228 242 168 231 223 217 188 184 189 187 179 177 173 173 168 171 161 159 146 137 130 137 141 135 127 114 107 91 69 73 76 73
155 141 167 303 18 266 267 202 220 219 236 226 245 251 219 231 222 215 189 185 190 187 178 180 171 168 166 162 157 148 153 145 145 143 146 156 141 134 125 117 119 108 97 90
161 143 165 224 214 299 300 205 178 180 253 221 232 249 244 218 43 252 209 187 188 187 181 178 172 165 161 162 161 150 155 155 148 157 158 165 164 154 138 131 125 116 107 105
196 245 176 120 222 242 283 54 116 124 293 223 215 235 236 140 224 243 204 192 183 174 173 169 161 156 158 164 153 155 165 169 168 170 169 162 156 160 158 148 138 124 116 114
158 179 210 209 243 277 250 173 191 125 238 330 331 248 180 198 210 185 289 191 174 168 164 160 160 165 171 160 155 166 169 186 181 158 154 151 160 159 157 130 84 110 118 117
164 170 185 194 230 260 150 57 201 191 332 355 352 335 276 145 141 93 27 151 154 155 155 163 163 168 162 160 160 170 184 172 163 158 157 158 157 161 147 144 154 151 147 147
199 187 174 191 207 79 208 241 220 198 173 8 340 334 344 254 189 162 182 177 164 161 161 162 164 158 162 167 173 175 185 159 156 156 164 159 147 149 151 159 157 156 161 164
240 227 236 125 237 245 229 258 244 230 218 182 206 252 234 229 250 222 196 197 173 165 165 160 149 170 172 175 179 181 162 157 156 165 162 158 160 156 163 159 168 166 170 164
184 157 172 256 260 294 263 239 247 239 211 208 205 208 219 206 219 213 212 210 198 175 166 169 172 181 184 174 180 165 160 157 165 159 161 171 170 169 165 169 184 185 215 179
180 176 191 222 210 209 252 236 231 225 223 216 206 209 223 194 215 193 213 200 193 186 168 180 185 182 179 177 177 169 163 168 166 165 169 180 177 174 169 170 131 202 187 191